#timestamp,LO_Frequency,Hit,StdDev 
1623938415.3,286046998.1,N
1623938435.2,286047000.2,N
1623938455.0,286047002.6,N
1623938455.9,286047002.6,N
1623938475.7,286047002.5,N
1623938495.6,286047002.0,N
1623938515.4,286047002.5,N
1623938565.3,286047002.6,E
1623938575.2,286047000.6,N
1623938595.0,286046998.3,P
1623938596.0,286046998.3,N
1623938615.8,286046999.4,N
1623938635.6,286046999.4,N
1623938655.5,286046999.3,N
1623938675.3,286046999.3,N
1623938695.1,286046998.2,N
1623938715.9,286046999.7,N
1623938735.7,286046998.5,N
1623938755.6,286046998.1,N
1623938775.4,286047001.2,N
1623938795.2,286047000.7,N
1623938815.1,286047000.6,N
1623938816.0,286047000.6,N
1623938835.8,286047000.8,N
1623938855.6,286047000.7,N
1623938875.5,286047000.5,N
1623938895.3,286047000.5,N
1623938915.2,286047000.4,N
1623938935.9,286047001.1,N
1623938955.7,286047000.6,N
1623938975.6,286046998.5,N
1623938995.4,286046998.1,N
1623939015.3,286046999.9,N
1623939035.1,286047000.2,N
1623939036.0,286047000.2,N
1623939055.8,286047002.6,N
1623939075.7,286047002.6,N
1623939095.5,286046999.7,N
1623939115.3,286047000.1,N
1623939135.2,286047002.4,N
1623939155.0,286047000.2,N
1623939155.9,286047000.2,N
1623939175.8,286047000.6,N
1623939195.6,286047000.0,N
1623939215.4,286047001.9,N
1623939235.3,286047002.7,N
1623939255.1,286047002.7,N
1623939275.9,286047000.1,N
1623939295.7,286047001.1,N
1623939315.5,286046999.2,N
1623939335.4,286046999.0,N
1623939355.2,286046999.3,N
1623939375.1,286046999.4,N
1623939376.0,286046999.4,N
1623939395.8,286046998.4,N
1623939415.6,286047000.6,N
1623939435.5,286046998.5,N
1623939455.3,286047001.5,N
1623939475.1,286047002.4,N
1623939495.9,286047010.0,Y
1623939515.7,286047010.3,P
1623939535.6,286047006.8,N
1623939555.4,286047005.5,N
1623939575.2,286047005.8,N
1623939595.1,286047003.9,N
1623939596.0,286047003.9,N
1623939615.8,286047002.4,N
1623939635.7,286047002.5,N
1623939655.5,286047001.8,N
1623939675.3,286047001.7,N
1623939695.2,286047002.1,N
1623939715.0,286047002.4,N
1623939715.9,286047002.4,N
1623939735.8,286046999.7,N
1623939755.6,286046999.9,N
1623939775.4,286047000.7,N
1623939795.3,286046998.9,N
1623939815.1,286046999.5,N
1623939835.9,286046998.8,N
1623939855.7,286046997.2,N
1623939875.5,286046998.0,N
1623939895.4,286046995.1,N
1623939915.2,286046994.9,N
1623939935.0,286046995.7,N
1623939935.9,286046995.7,N
1623939955.8,286046996.0,N
1623939975.6,286046996.0,N
1623939995.5,286046995.9,N
1623940015.3,286046993.4,N
1623940035.1,286046993.3,N
1623940055.9,286046994.1,N
1623940075.7,286046994.2,N
1623940095.6,286046994.4,N
1623940115.4,286046994.6,N
1623940135.2,286046992.0,N
1623940155.1,286046992.0,N
1623940156.0,286046992.0,N
1623940175.8,286046992.4,N
1623940195.6,286046992.2,N
1623940215.5,286046992.7,N
1623940235.3,286046992.7,N
1623940255.2,286046993.2,N
1623940275.9,286046993.2,N
1623940295.7,286046992.4,N
1623940315.6,286046992.4,N
1623940335.4,286046993.1,N
1623940355.2,286046990.4,Y
1623940375.1,286046995.3,P
1623940376.0,286046995.3,P
1623940395.8,286046997.9,P
1623940415.7,286046995.4,Y
1623940435.5,286047000.5,P
1623940455.3,286047000.5,N
1623940475.2,286047000.0,N
1623940495.0,286047000.5,N
1623940495.9,286047000.5,N
1623940515.8,286047001.2,N
1623940535.6,286047001.0,N
1623940555.4,286047000.5,N
1623940575.3,286047000.8,N
1623940595.1,286046998.6,N
1623940596.0,286046998.6,N
1623940615.8,286046999.4,N
1623940635.7,286046998.9,N
1623940655.5,286046998.5,N
1623940675.3,286046996.8,N
1623940695.2,286046996.6,N
1623940715.0,286046998.8,N
1623940715.9,286046998.8,N
1623940735.8,286046998.2,N
1623940755.6,286047001.1,N
1623940775.4,286047001.2,N
1623940795.3,286046999.3,N
1623940815.1,286046997.1,N
1623940835.9,286046997.7,N
1623940855.7,286046997.6,N
1623940875.5,286046995.2,Y
1623940895.4,286046997.9,P
1623940915.2,286046996.6,P
1623940935.0,286046998.9,N
1623940935.9,286046998.9,N
1623940955.8,286046998.5,N
1623940975.6,286047001.1,N
1623940995.5,286047000.7,N
1623941015.3,286047001.0,N
1623941035.1,286047000.5,N
1623941055.9,286046998.7,N
1623941075.7,286046998.8,N
1623941095.5,286047001.0,N
1623941115.4,286047000.7,N
1623941135.2,286047001.0,N
1623941155.1,286047000.8,N
1623941156.0,286047000.8,N
1623941175.8,286047000.4,N
1623941195.7,286047000.7,N
1623941215.5,286047000.8,N
1623941235.3,286046999.9,N
1623941255.2,286046999.7,N
1623941275.0,286047000.6,N
1623941275.9,286047000.6,N
1623941295.7,286046998.5,N
1623941315.6,286046998.1,N
1623941335.4,286047000.8,N
1623941355.3,286046998.7,N
1623941375.1,286046998.1,N
1623941395.8,286047000.3,N
1623941415.7,286047000.1,N
1623941435.5,286047001.0,N
1623941455.4,286047000.9,N
1623941475.2,286046999.9,N
1623941495.0,286047000.8,N
1623941495.9,286047000.8,N
1623941515.8,286046999.7,N
1623941535.6,286047002.5,N
1623941555.5,286047002.0,N
1623941575.3,286047002.5,N
1623941595.1,286047001.9,N
1623941615.9,286047002.2,N
1623941635.7,286047002.5,N
1623941655.6,286047002.1,N
1623941675.4,286047000.1,N
1623941695.2,286046999.9,N
1623941715.1,286047002.3,N
1623941716.0,286047002.3,N
1623941735.8,286047002.6,N
1623941755.6,286047001.8,N
1623941775.5,286047004.1,Y
1623941795.3,286047001.6,P
1623941815.2,286047001.8,P
1623941835.0,286047004.4,P
1623941835.9,286047004.4,Y
1623941855.8,286047001.1,P
1623941875.6,286047002.3,P
1623941895.4,286047000.9,N
1623941915.3,286047001.0,N
1623941935.1,286046998.5,N
1623941955.8,286047000.8,N
1623941975.7,286046998.6,N
1623941995.5,286046998.2,N
